This demonstration page uses our WeatherBlox Daily Observations layout. Learn more.

Left ArrowRight Arrow

40.92945, -100.16068

Hourly Observations for April 28, 2021

Temp ( °F °C ) Dew Point ( °F °C ) Humidity (%) Winds ( mph kmh ) Pressure ( in mb ) Visibility ( mi km ) Precip ( " mm )
12:15 am 00:15 Mostly Cloudy with Nearby Thunderstorms 53 11.8 49 9.5 86 86 SSW 23 37 29.91 1013 10 16 N/A
12:35 am 00:35 Cloudy with Thunderstorms 52 11.1 47 8.5 84 84 NNW 17 28 29.83 1010 7 11 0.23 5.84
12:55 am 00:55 Cloudy 53 11.4 47 8.5 83 83 NNE 12 19 29.85 1011 10 16 0.24 6.10
1:15 am 01:15 Mostly Cloudy 51 10.8 47 8.5 86 86 ENE 9 15 29.88 1012 10 16 N/A
1:35 am 01:35 Cloudy with Nearby Thunderstorms 51 10.7 47 8.5 86 86 NW 8 13 29.90 1013 10 16 N/A
1:55 am 01:55 Cloudy with Nearby Thunderstorms 51 10.3 47 8.2 87 87 N 7 11 29.90 1012 10 16 N/A
2:15 am 02:15 Cloudy 51 10.5 46 8 85 85 NE 8 13 29.88 1012 10 16 N/A
2:35 am 02:35 Cloudy 51 10.3 46 7.9 85 85 N 3 6 29.89 1012 10 16 N/A
2:55 am 02:55 Cloudy 51 10.3 47 8.2 87 87 NE 3 6 29.89 1012 10 16 N/A
3:15 am 03:15 Cloudy 51 10.5 47 8.2 86 86 NE 6 9 29.88 1012 10 16 N/A
3:35 am 03:35 Cloudy 51 10.3 47 8.3 88 88 ENE 9 15 29.88 1012 10 16 N/A
3:55 am 03:55 Cloudy 50 10.2 47 8.4 89 89 NE 10 17 29.88 1012 10 16 N/A
4:15 am 04:15 Cloudy 50 10 47 8.5 91 91 NE 9 15 29.89 1012 10 16 N/A
4:35 am 04:35 Cloudy 50 10 47 8.5 91 91 NNE 10 17 29.89 1012 10 16 N/A
4:55 am 04:55 Cloudy 50 10 47 8.5 91 91 NNE 10 17 29.90 1013 10 16 N/A
5:15 am 05:15 Cloudy 50 9.9 47 8.5 91 91 NNE 10 17 29.90 1013 10 16 N/A
5:30 am 05:30 Cloudy 49 9.7 47 8.5 92 92 NE 9 15 29.91 1013 10 16 N/A
5:55 am 05:55 Cloudy 49 9.7 47 8.5 92 92 NNE 12 19 29.90 1013 10 16 N/A
6:15 am 06:15 Cloudy 49 9.7 47 8.4 92 92 NE 10 17 29.91 1013 10 16 N/A
6:35 am 06:35 Cloudy 49 9.5 47 8.4 93 93 NNE 10 17 29.93 1013 10 16 N/A
6:55 am 06:55 Cloudy 48 9.1 46 8 93 93 NNE 12 19 29.93 1014 10 16 N/A
7:15 am 07:15 Cloudy 48 9.1 46 7.8 92 92 NNE 12 19 29.94 1014 10 16 N/A
7:35 am 07:35 Cloudy 48 9.1 46 7.8 92 92 N 7 11 29.95 1014 10 16 N/A
7:55 am 07:55 Cloudy 48 9 46 7.6 91 91 N 10 17 29.95 1014 10 16 N/A
8:15 am 08:15 Cloudy 48 9.1 46 7.8 92 92 N 12 19 29.95 1014 10 16 N/A
8:35 am 08:35 Cloudy 48 9.1 46 8 93 93 NNE 12 19 29.96 1015 10 16 N/A
8:55 am 08:55 Cloudy with Mist and Fog 48 9.1 46 8 93 93 NNE 12 19 29.98 1015 5 8 N/A
9:15 am 09:15 Cloudy with Mist and Fog 49 9.2 47 8.3 94 94 N 14 22 29.98 1015 2 3 N/A
9:35 am 09:35 Cloudy with Mist and Fog 49 9.3 47 8.5 95 95 N 14 22 29.98 1015 2 3 N/A
9:55 am 09:55 Cloudy with Mist and Fog 49 9.6 48 8.7 94 94 NNE 13 20 29.98 1015 3 5 N/A
10:15 am 10:15 Cloudy 49 9.7 48 8.7 94 94 NNE 14 22 29.99 1016 7 11 N/A
10:35 am 10:35 Cloudy 50 10 48 8.9 93 93 NNE 13 20 29.98 1015 10 16 N/A
10:55 am 10:55 Cloudy 51 10.3 48 9 92 92 NNE 15 24 29.99 1016 10 16 N/A
11:15 am 11:15 Cloudy 51 10.5 48 9.1 91 91 NNE 14 22 29.99 1015 10 16 N/A
11:35 am 11:35 Cloudy 51 10.6 48 9.1 91 91 NNE 14 22 29.99 1015 10 16 N/A
11:55 am 11:55 Cloudy 52 11.1 49 9.4 89 89 NNE 14 22 29.98 1015 10 16 N/A
12:15 pm 12:15 Cloudy 52 11.1 49 9.4 89 89 NNE 13 20 29.98 1015 10 16 N/A
12:35 pm 12:35 Cloudy 52 11.1 49 9.6 91 91 NNE 14 22 29.98 1015 10 16 N/A
12:55 pm 12:55 Cloudy 53 11.7 49 9.7 88 88 NE 13 20 29.98 1015 10 16 N/A
1:15 pm 13:15 Cloudy 54 12 49 9.7 86 86 NNE 14 22 29.97 1015 10 16 N/A
1:35 pm 13:35 Cloudy 54 12.3 50 10 86 86 N 16 26 29.96 1015 10 16 N/A
1:55 pm 13:55 Cloudy 55 13 50 10.1 83 83 NNE 14 22 29.95 1014 10 16 N/A
2:15 pm 14:15 Cloudy 56 13.4 51 10.4 82 82 NNE 14 22 29.94 1014 10 16 N/A
2:35 pm 14:35 Cloudy 57 13.8 51 10.5 81 81 N 13 20 29.94 1014 10 16 N/A
2:55 pm 14:55 Cloudy 58 14.4 51 10.4 77 77 N 15 24 29.93 1014 10 16 N/A
3:15 pm 15:15 Cloudy 59 14.8 51 10.4 75 75 N 13 20 29.93 1013 10 16 N/A
3:35 pm 15:35 Cloudy 59 15 51 10.3 74 74 N 12 19 29.93 1013 10 16 N/A
3:55 pm 15:55 Cloudy 59 15.1 51 10.5 74 74 N 15 24 29.92 1013 10 16 N/A
4:15 pm 16:15 Cloudy 59 15.1 50 10.1 72 72 N 10 17 29.92 1013 10 16 N/A
4:35 pm 16:35 Cloudy 60 15.5 51 10.4 72 72 N 12 19 29.91 1013 10 16 N/A
4:55 pm 16:55 Cloudy 61 16.1 51 10.6 70 70 N 14 22 29.91 1013 10 16 N/A
5:15 pm 17:15 Cloudy 60 15.8 51 10.8 72 72 N 10 17 29.91 1013 10 16 N/A
5:35 pm 17:35 Cloudy 58 14.7 50 10.1 74 74 N 15 24 29.93 1013 10 16 N/A
5:55 pm 17:55 Cloudy 59 15.1 51 10.4 74 74 N 12 19 29.93 1013 10 16 N/A
6:15 pm 18:15 Cloudy 60 15.3 51 10.3 72 72 N 9 15 29.92 1013 10 16 N/A
6:35 pm 18:35 Cloudy 60 15.6 50 10.2 70 70 N 12 19 29.92 1013 10 16 N/A
6:55 pm 18:55 Cloudy 60 15.4 50 9.8 69 69 N 13 20 29.93 1014 10 16 N/A
7:15 pm 19:15 Cloudy 60 15.5 50 10.1 70 70 N 8 13 29.93 1014 10 16 N/A
7:35 pm 19:35 Cloudy 59 15.1 50 9.8 71 71 N 7 11 29.94 1014 10 16 N/A
7:55 pm 19:55 Cloudy 58 14.5 51 10.3 76 76 N 6 9 29.95 1014 10 16 N/A
8:15 pm 20:15 Cloudy 58 14.2 51 10.8 80 80 NNW 6 9 29.95 1014 10 16 N/A
8:35 pm 20:35 Mostly Cloudy 57 13.8 51 10.5 81 81 NNW 6 9 29.96 1014 10 16 N/A
8:55 pm 20:55 Partly Cloudy 54 12.3 50 10.1 87 87 NW 9 15 29.98 1015 10 16 N/A
9:15 pm 21:15 Clear 53 11.5 48 9.1 85 85 NW 8 13 30.00 1016 10 16 N/A
9:35 pm 21:35 Clear 52 10.9 48 9 88 88 WNW 7 11 30.01 1016 10 16 N/A
9:55 pm 21:55 Clear 50 10.1 48 8.7 91 91 WNW 7 11 30.02 1017 10 16 N/A
10:15 pm 22:15 Clear 49 9.2 46 8 92 92 NW 6 9 30.04 1017 10 16 N/A
10:35 pm 22:35 Clear 48 8.8 46 7.6 92 92 NW 6 9 30.04 1017 10 16 N/A
10:55 pm 22:55 Clear 47 8.3 45 7.4 94 94 NW 7 11 30.06 1018 10 16 N/A
11:15 pm 23:15 Clear 46 7.7 44 6.8 94 94 WNW 6 9 30.07 1018 10 16 N/A
11:35 pm 23:35 Clear 47 8.4 46 7.6 95 95 WNW 6 9 30.07 1018 10 16 N/A
11:55 pm 23:55 Clear 46 7.7 44 6.9 95 95 WNW 6 9 30.07 1018 10 16 N/A

Powered by AerisWeather